Weather History for Longville, MN

Change the Weather History Date:

Tuesday, January 7, 2014

  Actual Average (KPWC) Record (KPWC)
Temperature  
Mean Temperature -15 °F -  
Max Temperature -5 °F 18 °F 48 °F (2003)
Min Temperature -25 °F 1 °F -29 °F (1997)
Degree Days  
Heating Degree Days 80    
Moisture  
Dew Point -21 °F    
Average Humidity 74    
Maximum Humidity 84    
Minimum Humidity 60    
Precipitation  
Precipitation 0.00 in - - ()
Sea Level Pressure  
Sea Level Pressure 30.06 in    
Wind  
Wind Speed 3 mph (West)    
Max Wind Speed 9 mph    
Max Gust Speed -    
Visibility 10 miles    
Events      
Averages and records for this station are not official NWS values.
T = Trace of Precipitation, MM = Missing Value Source: NWS Daily Summary

Daily Weather History Graph

Daily Weather History Graph

Search for Another Location

Airport:

Trip Planner

Search our weather history database for the weather conditions in past years. The results will help you decide how hot, cold, wet, or windy it might be!

Date:

Astronomy

Jan. 07, 2014 Rise Set
Actual Time 8:01 AM CST 4:44 PM CST
Civil Twilight 7:26 AM CST 5:19 PM CST
Nautical Twilight 6:48 AM CST 5:58 PM CST
Astronomical Twilight 6:11 AM CST 6:34 PM CST
Moon 11:21 AM CST (1/7) No Moon Set
Length of Visible Light 9h 52m
Length of Day
8h 43m
Waxing Crescent, 46% of the Moon is Illuminated
Jan 7
Waxing Crescent
Jan 7
First Quarter
Jan 15
Full
Jan 23
Last Quarter
Jan 30
New

Hourly Weather History & Observations

Time (CST) Temp. Windchill Dew Point Humidity Pressure Visibility Wind Dir Wind Speed Gust Speed Precip Events Conditions
12:16 AM -25.6 °F - -31.0 °F 76% 30.00 in 10.0 mi Calm Calm - N/A   Clear
12:36 AM -25.6 °F -37.1 °F -31.0 °F 76% 30.00 in 10.0 mi WSW 3.5 mph - N/A   Clear
12:55 AM -25.6 °F -37.1 °F -32.8 °F 69% 29.99 in 10.0 mi WSW 3.5 mph - N/A   Clear
1:16 AM -25.6 °F - -32.8 °F 69% 29.99 in 10.0 mi Calm Calm - N/A   Mostly Cloudy
1:36 AM -23.8 °F -35.0 °F -29.2 °F 76% 30.00 in 10.0 mi WSW 3.5 mph - N/A   Overcast
1:55 AM -22.0 °F -35.6 °F -27.4 °F 76% 30.00 in 10.0 mi West 4.6 mph - N/A   Overcast
2:15 AM -20.2 °F -30.9 °F -27.4 °F 69% 29.99 in 10.0 mi WSW 3.5 mph - N/A   Overcast
2:35 AM -20.2 °F -30.9 °F -25.6 °F 76% 29.98 in 10.0 mi WSW 3.5 mph - N/A   Overcast
2:55 AM -20.2 °F -30.9 °F -25.6 °F 76% 29.98 in 10.0 mi WSW 3.5 mph - N/A   Overcast
3:16 AM -18.4 °F - -25.6 °F 70% 29.99 in 10.0 mi Calm Calm - N/A   Overcast
3:36 AM -18.4 °F -28.9 °F -23.8 °F 76% 29.98 in 10.0 mi WSW 3.5 mph - N/A   Overcast
3:56 AM -18.4 °F -28.9 °F -23.8 °F 76% 29.98 in 10.0 mi SW 3.5 mph - N/A   Overcast
4:15 AM -18.4 °F -28.9 °F -23.8 °F 76% 29.97 in 10.0 mi SW 3.5 mph - N/A   Overcast
4:36 AM -18.4 °F -28.9 °F -23.8 °F 76% 29.98 in 10.0 mi WNW 3.5 mph - N/A   Overcast
4:55 AM -18.4 °F - -23.8 °F 76% 29.98 in 10.0 mi Calm Calm - N/A   Overcast
5:16 AM -18.4 °F - -23.8 °F 76% 29.97 in 10.0 mi Calm Calm - N/A   Overcast
5:36 AM -16.6 °F -26.8 °F -20.2 °F 84% 29.97 in 10.0 mi SW 3.5 mph - N/A   Overcast
5:56 AM -16.6 °F -31.3 °F -20.2 °F 84% 29.97 in 10.0 mi SW 5.8 mph - N/A   Overcast
6:16 AM -16.6 °F -29.3 °F -20.2 °F 84% 29.97 in 10.0 mi WSW 4.6 mph - N/A   Overcast
6:36 AM -16.6 °F -32.9 °F -20.2 °F 84% 29.97 in 10.0 mi SW 6.9 mph - N/A   Overcast
6:55 AM -16.6 °F -29.3 °F -20.2 °F 84% 29.98 in 10.0 mi WSW 4.6 mph - N/A   Overcast
7:16 AM -14.8 °F -29.1 °F -20.2 °F 77% 29.98 in 10.0 mi West 5.8 mph - N/A   Overcast
7:36 AM -14.8 °F -24.8 °F -20.2 °F 77% 29.99 in 10.0 mi WSW 3.5 mph - N/A   Overcast
7:56 AM -14.8 °F -24.8 °F -20.2 °F 77% 29.98 in 10.0 mi West 3.5 mph - N/A   Overcast
8:16 AM -14.8 °F -24.8 °F -20.2 °F 77% 30.00 in 10.0 mi West 3.5 mph - N/A   Overcast
8:35 AM -16.6 °F - -20.2 °F 84% 30.01 in 10.0 mi Calm Calm - N/A   Mostly Cloudy
8:55 AM -14.8 °F -27.2 °F -20.2 °F 77% 30.02 in 10.0 mi West 4.6 mph - N/A   Clear
9:15 AM -14.8 °F -29.1 °F -18.4 °F 84% 30.03 in 10.0 mi West 5.8 mph - N/A   Mostly Cloudy
9:35 AM -11.2 °F -24.8 °F -18.4 °F 70% 30.03 in 10.0 mi West 5.8 mph - N/A   Overcast
9:55 AM -11.2 °F -23.0 °F -18.4 °F 70% 30.04 in 10.0 mi WNW 4.6 mph - N/A   Overcast
10:16 AM -11.2 °F -27.8 °F -18.4 °F 70% 30.05 in 10.0 mi WNW 8.1 mph - N/A   Overcast
10:35 AM -11.2 °F -27.8 °F -18.4 °F 70% 30.05 in 10.0 mi WNW 8.1 mph - N/A   Mostly Cloudy
10:56 AM -9.4 °F -26.8 °F -18.4 °F 65% 30.05 in 10.0 mi WNW 9.2 mph - N/A   Overcast
11:15 AM -9.4 °F -26.8 °F -16.6 °F 71% 30.04 in 10.0 mi WNW 9.2 mph - N/A   Scattered Clouds
11:35 AM -9.4 °F -24.3 °F -16.6 °F 71% 30.03 in 10.0 mi WNW 6.9 mph - N/A   Scattered Clouds
11:55 AM -9.4 °F -26.8 °F -16.6 °F 71% 30.04 in 10.0 mi WNW 9.2 mph - N/A   Scattered Clouds
12:15 PM -7.6 °F -24.6 °F -16.6 °F 65% 30.04 in 10.0 mi West 9.2 mph - N/A   Scattered Clouds
12:36 PM -7.6 °F -20.6 °F -16.6 °F 65% 30.04 in 10.0 mi NW 5.8 mph - N/A   Clear
12:56 PM -7.6 °F -23.4 °F -16.6 °F 65% 30.04 in 10.0 mi WNW 8.1 mph - N/A   Scattered Clouds
1:15 PM -5.8 °F -19.9 °F -16.6 °F 60% 30.04 in 10.0 mi WNW 6.9 mph - N/A   Clear
1:36 PM -7.6 °F -18.8 °F -16.6 °F 65% 30.04 in 10.0 mi NW 4.6 mph - N/A   Clear
1:56 PM -7.6 °F -18.8 °F -16.6 °F 65% 30.05 in 10.0 mi NW 4.6 mph - N/A   Clear
2:15 PM -7.6 °F -20.6 °F -14.8 °F 71% 30.05 in 10.0 mi NW 5.8 mph - N/A   Clear
2:36 PM -7.6 °F -20.6 °F -14.8 °F 71% 30.07 in 10.0 mi WNW 5.8 mph - N/A   Clear
2:56 PM -5.8 °F - -14.8 °F 65% 30.07 in 10.0 mi Calm Calm - N/A   Clear
3:16 PM -5.8 °F - -14.8 °F 65% 30.07 in 10.0 mi Calm Calm - N/A   Clear
3:36 PM -5.8 °F -18.4 °F -14.8 °F 65% 30.08 in 10.0 mi NW 5.8 mph - N/A   Clear
3:56 PM -7.6 °F -16.5 °F -14.8 °F 71% 30.08 in 10.0 mi WNW 3.5 mph - N/A   Clear
4:16 PM -7.6 °F - -16.6 °F 65% 30.09 in 10.0 mi Calm Calm - N/A   Clear
4:36 PM -7.6 °F - -16.6 °F 65% 30.10 in 10.0 mi Calm Calm - N/A   Clear
4:56 PM -9.4 °F - -16.6 °F 71% 30.10 in 10.0 mi Calm Calm - N/A   Clear
5:16 PM -11.2 °F - -16.6 °F 77% 30.10 in 10.0 mi Calm Calm - N/A   Mostly Cloudy
5:36 PM -11.2 °F -20.6 °F -16.6 °F 77% 30.11 in 10.0 mi NW 3.5 mph - N/A   Scattered Clouds
5:56 PM -13.0 °F - -18.4 °F 77% 30.12 in 10.0 mi Calm Calm - N/A   Clear
6:16 PM -14.8 °F - -20.2 °F 77% 30.12 in 10.0 mi Calm Calm - N/A   Clear
6:36 PM -14.8 °F - -20.2 °F 77% 30.13 in 10.0 mi Calm Calm - N/A   Clear
6:56 PM -16.6 °F - -20.2 °F 84% 30.13 in 10.0 mi Calm Calm - N/A   Clear
7:16 PM -18.4 °F - -25.6 °F 70% 30.13 in 10.0 mi Calm Calm - N/A   Clear
7:36 PM -20.2 °F - -25.6 °F 76% 30.13 in 10.0 mi Calm Calm - N/A   Clear
7:56 PM -18.4 °F - -22.0 °F 84% 30.14 in 10.0 mi Calm Calm - N/A   Clear
8:16 PM -14.8 °F -24.8 °F -18.4 °F 84% 30.14 in 10.0 mi NW 3.5 mph - N/A   Clear
8:36 PM -14.8 °F -27.2 °F -18.4 °F 84% 30.15 in 10.0 mi NW 4.6 mph - N/A   Clear
8:56 PM -14.8 °F -30.8 °F -18.4 °F 84% 30.15 in 10.0 mi NW 6.9 mph - N/A   Clear
9:16 PM -14.8 °F -29.1 °F -20.2 °F 77% 30.16 in 10.0 mi NW 5.8 mph - N/A   Clear
9:36 PM -14.8 °F -29.1 °F -20.2 °F 77% 30.17 in 10.0 mi NW 5.8 mph - N/A   Clear
9:56 PM -14.8 °F -24.8 °F -20.2 °F 77% 30.18 in 10.0 mi WNW 3.5 mph - N/A   Clear
10:16 PM -16.6 °F - -20.2 °F 84% 30.18 in 10.0 mi Calm Calm - N/A   Clear
10:36 PM -16.6 °F - -22.0 °F 76% 30.19 in 10.0 mi Calm Calm - N/A   Clear
10:56 PM -16.6 °F - -23.8 °F 70% 30.19 in 10.0 mi Calm Calm - N/A   Clear
11:16 PM -18.4 °F - -25.6 °F 70% 30.19 in 10.0 mi Calm Calm - N/A   Clear
11:36 PM -20.2 °F - -25.6 °F 76% 30.19 in 10.0 mi Calm Calm - N/A   Clear
11:56 PM -22.0 °F - -27.4 °F 76% 30.19 in 10.0 mi Calm Calm - N/A   Clear